Regional Weather Roundup
Issued by NWS

Home | Current Version | Previous Version | Graphics & Text | Print | Product List | Glossary On
Versions: 1 2 3 4 5 6 7 8 9 10 11 12 13 14 15 16 17 18 19 20 21 22 23 24 25 26 27 28 29 30 31 32 33 34 35 36 37 38 39 40 41 42 43 44 45 46 47 48 49 50
000
ASUS43 KLOT 290408
RWRIL

ILLINOIS REGIONAL WEATHER ROUNDUP
NATIONAL WEATHER SERVICE CHICAGO/ROMEOVILLE IL
1100 PM CDT THU MAY 28 2015

NOTE: "FAIR" INDICATES FEW OR NO CLOUDS BELOW 12,000 FEET WITH NO
SIGNIFICANT WEATHER AND/OR OBSTRUCTIONS TO VISIBILITY.

* THESE STATIONS ARE NOT UNDER NWS QUALITY CONTROL. THEY ALSO MAY NOT
  REPORT WEATHER SUCH AS PRECIPITATION OR FOG.

ILZ001-002-007-009-015-016-024-290500-
NORTHWEST ILLINOIS

CITY           SKY/WX    TMP DP  RH WIND       PRES   REMARKS
MOLINE         PTCLDY    67  59  75 SW5       30.03R
STERLING*      CLEAR     64  54  68 SE3       30.03R
SAVANNA*       CLEAR     67  55  64 CALM      30.02R
$$

ILZ003-004-008-010-011-017-018-290500-
NORTH CENTRAL ILLINOIS

CITY           SKY/WX    TMP DP  RH WIND       PRES   REMARKS
ROCKFORD       MOCLDY    70  54  56 SE9       30.05S
FREEPORT*      PTCLDY    63  53  68 SE7       30.05S
ROCHELLE*      CLEAR     67  56  67 SE9       30.04F
DE KALB*       PTCLDY    63  55  75 E8        30.06S
PERU*          PTCLDY    71  51  48 SE8       30.04F
$$

ILZ005-006-012>014-019>023-290500-
NORTHEAST ILLINOIS

CITY           SKY/WX    TMP DP  RH WIND       PRES   REMARKS
CHICAGO-OHARE  MOCLDY    67  54  63 E6        30.06F
CHICAGO-MIDWAY MOCLDY    69  55  60 SE6       30.06F
AURORA         MOCLDY    67  54  63 E8        30.05F
LANSING*       CLEAR     67  55  65 SE5       30.07F
JOLIET*        PTCLDY    68  59  72 E5        30.05F
WAUKEGAN       PTCLDY    59  53  80 E6        30.07F
DUPAGE AIRPORT PTCLDY    68  54  60 E7        30.05F
KANKAKEE*      PTCLDY    70  54  56 SE6       30.07F
WHEELING       PTCLDY    65  54  67 CALM      30.08F
MORRIS*        PTCLDY    70  55  59 SE7       30.03F
ROMEOVILLE*    PTCLDY    67  56  66 E8        30.06F
NORTHERLY ISL    N/A     61  53  75 CALM        N/A
$$

LMZ740>746-290500-
SOUTHERN LAKE MICHIGAN

STATION/POSITION SKY/WX   TEMP    WIND        PRES    VSBY  WAVE
                          AIR SEA DIR/SP/G                  HT/PER
                          (F)     (DEG/KT/KT) (MB)    (MI)  (FT/S)
SOUTHERN BUOY              47 38  100/ 10/ 10 1019.5F         0
HARRISON CRIB              59     100/  7/ 10   N/A
BURNHAM HARBOR             60      CALM  /  5   N/A
CALUMET HARBOR             61      80/  5/  7   N/A
BURNS HARBOR               74     110/  9/ 14 1019.6R
MICHIGAN CITY              73      90/  8/  9   N/A
MICHIGAN CITY 6N           66 57  130/ 10/ 10   N/A           0
ST. JOSEPH                 69 58  160/ 10/ 12   N/A           1
$$

ILZ025>027-034>036-040-047-049-050-058-095>099-290500-
WEST-CENTRAL ILLINOIS

CITY           SKY/WX    TMP DP  RH WIND       PRES   REMARKS
QUINCY         CLOUDY    68  65  90 E8        30.01F
GALESBURG*     PTCLDY    67  61  83 CALM      30.04S
MACOMB*        PTCLDY    67  65  91 E5        30.05F
JACKSONVILLE*  PTCLDY    71  67  88 SE7       30.05R
PITTSFIELD*    MOCLDY    67  65  93 CALM      30.04F
$$

ILZ028>032-037-038-041>044-048-051>054-059>061-290500-
CENTRAL ILLINOIS

CITY           SKY/WX    TMP DP  RH WIND       PRES   REMARKS
PONTIAC        PTCLDY    71  56  58 S3        30.06S
BLOOMINGTON    MOCLDY    71  64  78 S3        30.07F
DECATUR        PTCLDY    73  63  70 SE9       30.06F
PEORIA         PTCLDY    73  62  68 CALM      30.04F
LACON*         PTCLDY    70  59  66 SE3       30.03S
LINCOLN*       MOCLDY    70  64  83 S3        30.02F
SPRINGFIELD    PTCLDY    71  66  84 SE6       30.05S
TAYLORVILLE    PTCLDY    72  64  78 SE8       30.06S
$$

ILZ033-039-045-046-055>057-062-063-290500-
EAST-CENTRAL ILLINOIS

CITY           SKY/WX    TMP DP  RH WIND       PRES   REMARKS
CHAMPAIGN      MOCLDY    74  63  68 S8        30.08F
DANVILLE*      CLOUDY    75  64  67 S7        30.07F
RANTOUL*       MOCLDY    73  63  70 SE5       30.08S
PARIS*         PTCLDY    73  64  72 SE8       30.10F
$$

ILZ079-100>102-290500-
SOUTHWEST ILLINOIS

CITY           SKY/WX    TMP DP  RH WIND       PRES   REMARKS
ALTON          PTCLDY    72  68  89 S7        30.05F
BELLEVILLE     PTCLDY    70  68  94 SE6       30.04F
CAHOKIA*       PTCLDY    73  64  73 S5        30.05R
SPARTA*        PTCLDY    70  66  88 SE5       30.07F
$$

ILZ064>066-069>071-074>076-080>082-084>086-088>090-092>094-290500-
SOUTH-CENTRAL ILLINOIS

CITY           SKY/WX    TMP DP  RH WIND       PRES   REMARKS
CARBONDALE     CLEAR     70  66  87 E5        30.07F
CAIRO*         CLEAR     70  67  92 CALM      30.08S
EFFINGHAM*     PTCLDY    71  64  81 SE5       30.09F
MARION         CLEAR     73  66  78 SE5       30.09S
MT. VERNON     CLEAR     66  61  82 CALM      30.09S
CENTRALIA*     CLEAR     67  64  89 CALM      30.08S
SALEM*         CLEAR     75  65  71 SE3       30.08F
METROPOLIS*      N/A     69  69 100 CALM      30.08S FOG
$$

ILZ067-068-072-073-078-083-087-091-290500-
SOUTHEAST ILLINOIS

CITY           SKY/WX    TMP DP  RH WIND       PRES   REMARKS
LAWRENCEVILLE  CLEAR     72  66  81 SE8       30.10F
FLORA*         CLEAR     70  64  80 S5        30.09F
FAIRFIELD*     CLEAR     73  65  77 SE3       30.07F
HARRISBURG*    CLEAR     72  66  82 SE5       30.09F
ROBINSON*      CLEAR     73  65  74 SE7       30.11F
CARMI*         CLEAR     70  63  78 S3        30.08F
$$

ABBREVIATIONS USED IN REMARKS
   TC - TEMPERATURE IN CELSIUS
  WCI - WIND CHILL INDEX
   HX - HEAT INDEX
  VSB - VISIBILITY
$$



USA.gov is the U.S. government's official web portal to all federal, state and local government web resources and services.